contact:dominique.lefevre@mio.osupytheas.fr, maurice.libes@osupytheas.fr, didier.mallarino@osupytheas.fr
Project:EMSO http://www.emso-fr.org/EMSO-France
Depth: 2436.0 m
Title:EMSO Ligure Ouest : Data MII capteur AQUADOPP
Date,Latitude,Longitude,X_East,Y_North,Z_Up,Amplitude_X,Amplitude_Y,Amplitude_Z,Batterie,SoundSpeed,Heading,Pitch,Roll,Pressure,TIS,Speed,Direction
, degrees North, degrees East, m.s-1, m.s-1,m.s-1, 1, 1, 1, Volt, m.s-1, degree, degree, degree, dbar, degree_C, m.s-1, degree
2021-04-18T00:04:03,42.805,6.029,-0.03,0.022,-0.003,102.0,104.0,102.0,13.3,1505.2,325.8,-0.8,1.8,2470.498,13.28,0.037,306.3
2021-04-18T00:07:03,42.805,6.029,-0.062,0.0,-0.03,104.0,105.0,100.0,13.3,1505.2,327.4,-0.8,1.8,2470.469,13.28,0.061,270.0
2021-04-18T00:10:03,42.805,6.029,-0.058,0.015,0.005,104.0,103.0,103.0,13.4,1505.2,323.9,-0.8,1.8,2470.494,13.28,0.059,284.5
2021-04-18T00:13:03,42.805,6.029,-0.048,0.021,-0.017,103.0,103.0,102.0,13.3,1505.2,327.5,-0.8,1.8,2470.479,13.28,0.052,293.6
2021-04-18T00:16:03,42.805,6.029,-0.054,0.018,0.004,106.0,105.0,102.0,13.4,1505.2,327.9,-0.8,1.9,2470.512,13.28,0.056,288.4
2021-04-18T00:19:03,42.805,6.029,-0.064,0.01,0.007,105.0,104.0,101.0,13.4,1505.2,326.8,-0.7,1.8,2470.488,13.28,0.064,278.9
2021-04-18T00:22:03,42.805,6.029,-0.063,0.019,0.011,104.0,103.0,104.0,13.4,1505.2,326.9,-0.7,1.8,2470.441,13.28,0.065,286.8
2021-04-18T00:25:03,42.805,6.029,-0.045,0.026,0.011,104.0,104.0,103.0,13.4,1505.2,325.6,-0.7,1.8,2470.437,13.28,0.051,300.0
2021-04-18T00:28:03,42.805,6.029,-0.05,0.025,0.012,103.0,104.0,103.0,13.3,1505.2,328.8,-0.8,1.8,2470.479,13.28,0.055,296.6
2021-04-18T00:31:03,42.805,6.029,-0.043,0.0,0.011,105.0,104.0,102.0,13.4,1505.2,324.0,-0.8,1.9,2470.453,13.28,0.043,270.0
2021-04-18T00:34:03,42.805,6.029,-0.07,0.027,0.009,106.0,105.0,101.0,13.4,1505.2,327.7,-0.8,1.8,2470.467,13.28,0.075,291.1
2021-04-18T00:37:03,42.805,6.029,-0.053,0.024,0.02,105.0,103.0,102.0,13.4,1505.2,325.6,-0.8,1.8,2470.427,13.28,0.058,294.4
2021-04-18T00:40:03,42.805,6.029,-0.068,0.015,0.009,105.0,104.0,101.0,13.3,1505.2,326.5,-0.8,1.8,2470.486,13.28,0.069,282.4
2021-04-18T00:43:03,42.805,6.029,-0.061,-0.004,-0.003,105.0,104.0,101.0,13.4,1505.2,324.7,-0.8,1.8,2470.438,13.28,0.061,266.3
2021-04-18T00:46:03,42.805,6.029,-0.059,0.026,-0.002,105.0,103.0,101.0,13.3,1505.2,328.3,-0.7,1.8,2470.441,13.28,0.064,293.8
2021-04-18T00:49:03,42.805,6.029,-0.048,0.006,-0.012,106.0,105.0,101.0,13.3,1505.2,327.0,-0.7,1.8,2470.445,13.28,0.048,277.1
2021-04-18T00:52:03,42.805,6.029,-0.055,0.022,-0.012,105.0,104.0,101.0,13.4,1505.2,328.3,-0.7,1.8,2470.481,13.28,0.059,291.8
2021-04-18T00:55:03,42.805,6.029,-0.047,0.018,0.008,104.0,104.0,101.0,13.4,1505.2,323.6,-0.7,1.8,2470.471,13.28,0.05,291.0
2021-04-18T00:58:03,42.805,6.029,-0.038,0.001,-0.001,103.0,104.0,103.0,13.3,1505.2,326.4,-0.8,1.8,2470.436,13.28,0.038,271.5
2021-04-18T01:04:03,42.805,6.029,-0.053,0.008,0.014,104.0,104.0,102.0,13.4,1505.2,326.9,-0.8,1.8,2470.494,13.28,0.053,278.6
2021-04-18T01:07:03,42.805,6.029,-0.038,0.007,0.001,103.0,102.0,101.0,13.4,1505.2,328.2,-0.8,1.8,2470.473,13.28,0.038,280.4
2021-04-18T01:10:03,42.805,6.029,-0.045,0.006,-0.013,105.0,105.0,101.0,13.4,1505.2,325.5,-0.7,1.8,2470.462,13.28,0.045,277.6
2021-04-18T01:13:03,42.805,6.029,-0.04,0.017,0.011,104.0,104.0,102.0,13.4,1505.2,329.0,-0.8,1.8,2470.449,13.28,0.043,293.0
2021-04-18T01:16:03,42.805,6.029,-0.045,0.005,-0.005,105.0,104.0,102.0,13.4,1505.2,326.4,-0.8,1.8,2470.421,13.28,0.045,276.3
2021-04-18T01:19:03,42.805,6.029,-0.052,0.007,-0.004,103.0,104.0,102.0,13.4,1505.2,328.4,-0.7,1.8,2470.442,13.28,0.052,277.7
2021-04-18T01:22:03,42.805,6.029,-0.012,0.022,0.0,106.0,103.0,102.0,13.4,1505.2,326.0,-0.7,1.8,2470.459,13.28,0.025,331.4
2021-04-18T01:25:03,42.805,6.029,-0.035,0.028,0.018,103.0,103.0,102.0,13.4,1505.2,327.9,-0.8,1.8,2470.424,13.28,0.044,308.7
2021-04-18T01:28:03,42.805,6.029,-0.055,0.032,0.023,103.0,105.0,101.0,13.4,1505.2,327.1,-0.8,1.8,2470.445,13.28,0.063,300.2
2021-04-18T01:31:03,42.805,6.029,-0.039,0.027,0.001,104.0,102.0,101.0,13.4,1505.2,328.3,-0.7,1.8,2470.418,13.28,0.047,304.7
2021-04-18T01:34:03,42.805,6.029,-0.03,0.018,0.051,106.0,103.0,100.0,13.4,1505.2,325.4,-0.8,1.8,2470.427,13.28,0.034,301.0
2021-04-18T01:37:03,42.805,6.029,-0.06,0.029,-0.011,103.0,104.0,102.0,13.4,1505.2,324.4,-0.7,1.8,2470.422,13.28,0.066,295.8
2021-04-18T01:40:03,42.805,6.029,-0.048,0.021,0.033,102.0,105.0,101.0,13.4,1505.2,325.3,-0.8,1.8,2470.489,13.28,0.052,293.6
2021-04-18T01:43:03,42.805,6.029,-0.045,0.02,0.035,104.0,104.0,102.0,13.3,1505.2,326.6,-0.8,1.8,2470.48,13.28,0.049,294.0
2021-04-18T01:46:03,42.805,6.029,-0.039,0.021,0.008,103.0,103.0,104.0,13.3,1505.2,325.3,-0.8,1.8,2470.443,13.28,0.044,298.3
2021-04-18T01:49:03,42.805,6.029,-0.043,0.027,0.019,104.0,102.0,102.0,13.3,1505.2,325.8,-0.8,1.8,2470.431,13.28,0.05,302.1
2021-04-18T01:52:03,42.805,6.029,-0.044,0.002,-0.004,104.0,103.0,101.0,13.3,1505.2,327.1,-0.7,1.9,2470.46,13.28,0.044,272.6
2021-04-18T01:55:03,42.805,6.029,-0.057,0.013,-0.001,103.0,104.0,102.0,13.4,1505.2,327.2,-0.8,1.8,2470.464,13.28,0.058,282.8
2021-04-18T01:58:03,42.805,6.029,-0.05,0.0,-0.026,104.0,104.0,101.0,13.4,1505.2,328.6,-0.7,1.8,2470.457,13.28,0.05,270.0
2021-04-18T02:04:03,42.805,6.029,-0.047,0.0,-0.017,105.0,104.0,102.0,13.3,1505.2,325.2,-0.8,1.8,2470.432,13.28,0.047,270.0
2021-04-18T02:07:03,42.805,6.029,-0.038,-0.004,-0.018,105.0,104.0,103.0,13.4,1505.2,325.2,-0.7,1.8,2470.453,13.28,0.038,264.0
2021-04-18T02:10:03,42.805,6.029,-0.046,0.019,0.021,104.0,103.0,102.0,13.4,1505.2,328.4,-0.7,1.9,2470.454,13.28,0.049,292.4
2021-04-18T02:13:03,42.805,6.029,-0.034,0.012,0.023,106.0,103.0,100.0,13.4,1505.2,324.4,-0.7,1.8,2470.462,13.28,0.036,289.4
2021-04-18T02:16:03,42.805,6.029,-0.036,0.023,0.032,105.0,103.0,101.0,13.4,1505.2,324.8,-0.7,1.8,2470.445,13.28,0.042,302.6
2021-04-18T02:19:03,42.805,6.029,-0.067,0.012,0.038,105.0,104.0,101.0,13.3,1505.2,324.2,-0.7,1.8,2470.455,13.28,0.068,280.2
2021-04-18T02:22:03,42.805,6.029,-0.054,0.01,-0.017,104.0,103.0,102.0,13.4,1505.2,327.5,-0.8,1.8,2470.435,13.28,0.054,280.5
2021-04-18T02:25:03,42.805,6.029,-0.06,0.013,0.005,104.0,102.0,101.0,13.3,1505.2,325.4,-0.8,1.8,2470.432,13.28,0.061,282.2
2021-04-18T02:28:03,42.805,6.029,-0.07,0.014,0.006,103.0,104.0,101.0,13.4,1505.2,325.4,-0.8,1.8,2470.47,13.28,0.071,281.3
2021-04-18T02:31:03,42.805,6.029,-0.044,0.03,0.024,105.0,102.0,101.0,13.4,1505.2,327.5,-0.8,1.8,2470.439,13.28,0.053,304.3
2021-04-18T02:34:03,42.805,6.029,-0.083,0.018,-0.002,104.0,102.0,101.0,13.3,1505.2,328.7,-0.7,1.8,2470.408,13.28,0.084,282.2
2021-04-18T02:37:03,42.805,6.029,-0.054,0.005,0.007,105.0,104.0,101.0,13.4,1505.2,323.6,-0.7,1.8,2470.45,13.28,0.054,275.3
2021-04-18T02:40:03,42.805,6.029,-0.057,-0.004,-0.005,105.0,105.0,101.0,13.4,1505.2,327.4,-0.7,1.8,2470.445,13.28,0.057,266.0
2021-04-18T02:43:03,42.805,6.029,-0.056,0.015,0.004,105.0,103.0,102.0,13.4,1505.2,326.5,-0.8,1.8,2470.42,13.28,0.057,285.0
2021-04-18T02:46:03,42.805,6.029,-0.05,0.017,0.017,103.0,103.0,101.0,13.4,1505.2,323.6,-0.7,1.8,2470.433,13.28,0.052,288.8
2021-04-18T02:49:03,42.805,6.029,-0.059,0.023,0.015,105.0,104.0,101.0,13.4,1505.2,328.0,-0.7,1.8,2470.446,13.28,0.063,291.3
2021-04-18T02:52:03,42.805,6.029,-0.041,0.014,0.033,105.0,104.0,101.0,13.4,1505.2,325.3,-0.8,1.8,2470.376,13.28,0.043,288.9
2021-04-18T02:55:03,42.805,6.029,-0.058,0.026,-0.014,104.0,104.0,101.0,13.4,1505.2,329.2,-0.8,1.9,2470.417,13.28,0.063,294.1
2021-04-18T02:58:03,42.805,6.029,-0.053,0.033,0.013,105.0,104.0,101.0,13.4,1505.2,326.0,-0.7,1.9,2470.395,13.28,0.062,301.9
2021-04-18T03:04:03,42.805,6.029,-0.061,0.02,-0.007,102.0,103.0,101.0,13.4,1505.2,325.3,-0.8,1.8,2470.411,13.28,0.064,288.1
2021-04-18T03:07:03,42.805,6.029,-0.039,0.009,-0.004,103.0,103.0,101.0,13.3,1505.2,326.5,-0.8,1.8,2470.408,13.28,0.04,283.0
2021-04-18T03:10:03,42.805,6.029,-0.049,0.034,0.028,104.0,106.0,101.0,13.4,1505.2,327.5,-0.7,1.9,2470.437,13.28,0.059,304.8
2021-04-18T03:13:03,42.805,6.029,-0.043,0.02,0.013,103.0,103.0,102.0,13.4,1505.2,324.4,-0.7,1.8,2470.46,13.28,0.047,294.9
2021-04-18T03:16:03,42.805,6.029,-0.046,0.007,0.002,105.0,104.0,102.0,13.4,1505.2,327.8,-0.8,1.8,2470.422,13.28,0.046,278.7
2021-04-18T03:19:03,42.805,6.029,-0.053,0.017,0.008,104.0,104.0,101.0,13.4,1505.2,326.1,-0.7,1.8,2470.428,13.28,0.055,287.8
2021-04-18T03:22:03,42.805,6.029,-0.048,0.023,0.012,103.0,104.0,101.0,13.4,1505.2,324.4,-0.7,1.8,2470.411,13.28,0.053,295.6
2021-04-18T03:25:03,42.805,6.029,-0.055,0.001,0.004,105.0,103.0,100.0,13.3,1505.2,325.5,-0.7,1.8,2470.388,13.28,0.055,271.0
2021-04-18T03:28:03,42.805,6.029,-0.028,0.025,0.036,103.0,102.0,102.0,13.3,1505.2,325.7,-0.8,1.8,2470.409,13.28,0.037,311.8
2021-04-18T03:31:03,42.805,6.029,-0.067,0.023,0.049,103.0,104.0,100.0,13.4,1505.2,328.3,-0.8,1.8,2470.373,13.28,0.07,288.9
2021-04-18T03:34:03,42.805,6.029,-0.069,0.01,0.02,104.0,104.0,102.0,13.4,1505.2,325.5,-0.8,1.9,2470.402,13.28,0.069,278.2
2021-04-18T03:37:03,42.805,6.029,-0.069,0.026,0.009,103.0,105.0,101.0,13.4,1505.2,324.8,-0.7,1.8,2470.424,13.28,0.073,290.6
2021-04-18T03:40:03,42.805,6.029,-0.037,0.005,-0.005,103.0,104.0,100.0,13.4,1505.2,327.0,-0.7,1.9,2470.435,13.28,0.037,277.7
2021-04-18T03:43:03,42.805,6.029,-0.067,0.025,0.0,104.0,102.0,101.0,13.4,1505.2,324.8,-0.7,1.8,2470.394,13.28,0.071,290.5
2021-04-18T03:46:03,42.805,6.029,-0.07,0.045,-0.008,102.0,104.0,101.0,13.4,1505.2,328.3,-0.8,1.8,2470.435,13.28,0.083,302.7
2021-04-18T03:49:03,42.805,6.029,-0.035,0.015,0.013,104.0,103.0,102.0,13.3,1505.2,327.9,-0.7,1.8,2470.406,13.28,0.038,293.2
2021-04-18T03:52:03,42.805,6.029,-0.049,0.032,0.024,104.0,103.0,102.0,13.4,1505.2,326.8,-0.7,1.8,2470.383,13.28,0.058,303.2
2021-04-18T03:55:03,42.805,6.029,-0.044,0.04,0.0,104.0,101.0,101.0,13.4,1505.2,327.4,-0.8,1.8,2470.382,13.28,0.059,312.3
2021-04-18T03:58:03,42.805,6.029,-0.043,0.012,0.0,104.0,102.0,101.0,13.4,1505.2,325.6,-0.8,1.8,2470.412,13.28,0.044,285.6
2021-04-18T04:04:03,42.805,6.029,-0.036,0.019,0.004,104.0,104.0,101.0,13.4,1505.2,323.4,-0.8,1.8,2470.433,13.28,0.04,297.8
2021-04-18T04:07:03,42.805,6.029,-0.044,0.005,0.019,103.0,104.0,102.0,13.4,1505.2,329.1,-0.8,1.9,2470.404,13.28,0.044,276.5
2021-04-18T04:10:03,42.805,6.029,-0.056,0.009,0.017,105.0,104.0,102.0,13.4,1505.2,326.5,-0.7,1.8,2470.351,13.28,0.056,279.1
2021-04-18T04:13:03,42.805,6.029,-0.051,0.021,-0.002,104.0,104.0,102.0,13.3,1505.2,328.2,-0.7,1.9,2470.421,13.28,0.055,292.4
2021-04-18T04:16:03,42.805,6.029,-0.056,0.036,0.003,103.0,103.0,100.0,13.4,1505.2,327.0,-0.8,1.8,2470.383,13.28,0.066,302.7
2021-04-18T04:19:03,42.805,6.029,-0.067,0.022,0.042,102.0,103.0,103.0,13.3,1505.2,325.9,-0.8,1.8,2470.403,13.28,0.07,288.2
2021-04-18T04:22:03,42.805,6.029,-0.058,0.001,-0.012,104.0,102.0,101.0,13.3,1505.2,327.7,-0.7,1.8,2470.361,13.28,0.058,271.0
2021-04-18T04:25:03,42.805,6.029,-0.055,0.04,0.025,103.0,104.0,102.0,13.4,1505.2,323.7,-0.8,1.8,2470.411,13.28,0.068,306.0
2021-04-18T04:28:03,42.805,6.029,-0.05,0.029,0.033,104.0,102.0,101.0,13.4,1505.2,326.3,-0.8,1.8,2470.406,13.28,0.057,300.1
2021-04-18T04:31:03,42.805,6.029,-0.042,0.032,0.031,103.0,104.0,102.0,13.4,1505.2,325.0,-0.8,1.8,2470.412,13.28,0.052,307.3
2021-04-18T04:34:03,42.805,6.029,-0.044,0.023,0.0,105.0,104.0,101.0,13.4,1505.2,328.5,-0.8,1.8,2470.388,13.28,0.049,297.6
2021-04-18T04:37:03,42.805,6.029,-0.055,0.028,0.0,104.0,104.0,102.0,13.3,1505.2,324.9,-0.8,1.8,2470.346,13.28,0.061,297.0
2021-04-18T04:40:03,42.805,6.029,-0.062,0.011,0.023,104.0,105.0,101.0,13.4,1505.2,325.4,-0.8,1.8,2470.368,13.28,0.062,280.1
2021-04-18T04:43:03,42.805,6.029,-0.063,0.026,0.023,104.0,103.0,101.0,13.4,1505.2,323.6,-0.8,1.9,2470.393,13.28,0.068,292.4
2021-04-18T04:46:03,42.805,6.029,-0.065,0.019,-0.021,104.0,104.0,102.0,13.4,1505.2,326.7,-0.7,1.8,2470.385,13.28,0.067,286.3
2021-04-18T04:49:03,42.805,6.029,-0.047,0.03,0.025,103.0,105.0,99.0,13.4,1505.2,324.3,-0.8,1.8,2470.399,13.28,0.055,302.6
2021-04-18T04:52:03,42.805,6.029,-0.045,0.016,0.018,103.0,104.0,101.0,13.4,1505.2,323.4,-0.7,1.9,2470.371,13.28,0.047,289.6
2021-04-18T04:55:03,42.805,6.029,-0.066,0.027,0.007,103.0,105.0,101.0,13.4,1505.2,329.4,-0.8,1.8,2470.363,13.28,0.071,292.2
2021-04-18T04:58:03,42.805,6.029,-0.05,0.033,0.035,103.0,103.0,102.0,13.3,1505.2,325.6,-0.7,1.9,2470.342,13.28,0.059,303.4
2021-04-18T05:04:03,42.805,6.029,-0.045,0.018,0.015,104.0,104.0,101.0,13.4,1505.2,327.8,-0.7,1.8,2470.399,13.28,0.048,291.8
2021-04-18T05:07:03,42.805,6.029,-0.044,0.009,0.028,105.0,105.0,101.0,13.4,1505.2,325.7,-0.8,1.8,2470.409,13.28,0.044,281.6
2021-04-18T05:10:03,42.805,6.029,-0.06,0.02,0.013,103.0,103.0,101.0,13.4,1505.2,328.6,-0.8,1.9,2470.38,13.28,0.063,288.4
2021-04-18T05:13:03,42.805,6.029,-0.058,0.024,-0.012,104.0,104.0,102.0,13.3,1505.2,327.3,-0.7,1.8,2470.359,13.28,0.062,292.5
2021-04-18T05:16:03,42.805,6.029,-0.039,0.003,0.007,103.0,103.0,101.0,13.4,1505.2,327.1,-0.7,1.8,2470.394,13.28,0.039,274.4
2021-04-18T05:19:03,42.805,6.029,-0.069,0.021,0.012,104.0,104.0,101.0,13.4,1505.2,328.6,-0.8,1.8,2470.423,13.28,0.072,286.9
2021-04-18T05:22:03,42.805,6.029,-0.057,0.014,0.026,104.0,102.0,102.0,13.3,1505.2,326.9,-0.7,1.8,2470.374,13.28,0.058,283.8
2021-04-18T05:25:03,42.805,6.029,-0.05,0.016,0.042,104.0,106.0,100.0,13.4,1505.2,326.9,-0.8,1.8,2470.358,13.28,0.052,287.7
2021-04-18T05:28:03,42.805,6.029,-0.036,0.017,0.017,105.0,104.0,103.0,13.3,1505.2,325.4,-0.8,1.8,2470.363,13.28,0.039,295.3
2021-04-18T05:31:03,42.805,6.029,-0.051,0.036,0.007,104.0,104.0,102.0,13.4,1505.2,327.5,-0.7,1.9,2470.346,13.28,0.062,305.2
2021-04-18T05:34:03,42.805,6.029,-0.047,0.006,-0.004,104.0,103.0,101.0,13.4,1505.2,326.8,-0.7,1.8,2470.374,13.28,0.047,277.3
2021-04-18T05:37:03,42.805,6.029,-0.062,0.013,-0.017,104.0,104.0,101.0,13.3,1505.2,324.8,-0.7,1.8,2470.346,13.28,0.063,281.8
2021-04-18T05:40:03,42.805,6.029,-0.057,0.002,-0.01,103.0,103.0,100.0,13.3,1505.2,324.0,-0.8,1.8,2470.355,13.28,0.057,272.0
2021-04-18T05:43:03,42.805,6.029,-0.055,0.014,-0.028,102.0,104.0,101.0,13.4,1505.2,328.3,-0.7,1.8,2470.389,13.28,0.056,284.3
2021-04-18T05:46:03,42.805,6.029,-0.049,0.042,0.023,103.0,104.0,101.0,13.4,1505.2,325.8,-0.8,1.8,2470.346,13.28,0.064,310.6
2021-04-18T05:49:03,42.805,6.029,-0.062,0.029,0.009,104.0,103.0,101.0,13.3,1505.2,328.6,-0.8,1.8,2470.38,13.28,0.068,295.1
2021-04-18T05:52:03,42.805,6.029,-0.046,0.042,0.009,102.0,105.0,101.0,13.4,1505.2,328.4,-0.8,1.8,2470.345,13.28,0.062,312.4
2021-04-18T05:55:03,42.805,6.029,-0.024,0.017,0.025,102.0,104.0,101.0,13.4,1505.2,325.7,-0.8,1.8,2470.394,13.28,0.029,305.3
2021-04-18T05:58:03,42.805,6.029,-0.072,0.03,0.035,105.0,104.0,101.0,13.4,1505.2,327.8,-0.8,1.8,2470.358,13.28,0.077,292.6
2021-04-18T06:04:03,42.805,6.029,-0.042,0.0,-0.001,105.0,104.0,102.0,13.3,1505.2,327.6,-0.7,1.8,2470.373,13.28,0.042,270.0
2021-04-18T06:07:03,42.805,6.029,-0.04,0.006,0.026,105.0,105.0,102.0,13.3,1505.2,323.6,-0.8,1.8,2470.408,13.28,0.04,278.5
2021-04-18T06:10:03,42.805,6.029,-0.063,0.001,0.022,103.0,102.0,102.0,13.3,1505.2,328.2,-0.7,1.8,2470.383,13.28,0.063,270.9
2021-04-18T06:13:03,42.805,6.029,-0.033,0.014,0.0,104.0,105.0,101.0,13.4,1505.2,326.9,-0.8,1.8,2470.392,13.28,0.035,293.0
2021-04-18T06:16:03,42.805,6.029,-0.042,0.009,0.014,106.0,104.0,101.0,13.4,1505.2,327.7,-0.8,1.9,2470.353,13.28,0.042,282.1
2021-04-18T06:19:03,42.805,6.029,-0.043,0.036,0.022,104.0,104.0,103.0,13.4,1505.2,324.8,-0.8,1.8,2470.357,13.28,0.056,309.9
2021-04-18T06:22:03,42.805,6.029,-0.038,0.012,-0.026,103.0,104.0,102.0,13.4,1505.2,326.3,-0.7,1.8,2470.375,13.28,0.039,287.5
2021-04-18T06:25:03,42.805,6.029,-0.08,0.012,0.028,103.0,104.0,102.0,13.3,1505.2,325.6,-0.7,1.8,2470.373,13.28,0.08,278.5
2021-04-18T06:28:03,42.805,6.029,-0.061,0.016,0.017,103.0,104.0,102.0,13.3,1505.2,325.7,-0.8,1.8,2470.375,13.28,0.063,284.7
2021-04-18T06:31:03,42.805,6.029,-0.041,0.012,0.006,104.0,104.0,101.0,13.3,1505.2,324.1,-0.7,1.8,2470.403,13.28,0.042,286.3
2021-04-18T06:34:03,42.805,6.029,-0.041,0.021,0.012,105.0,103.0,102.0,13.4,1505.2,324.6,-0.7,1.8,2470.391,13.28,0.046,297.1
2021-04-18T06:37:03,42.805,6.029,-0.038,0.02,0.028,103.0,103.0,102.0,13.3,1505.2,328.7,-0.8,1.8,2470.36,13.28,0.042,297.8
2021-04-18T06:40:03,42.805,6.029,-0.059,0.02,0.005,103.0,104.0,101.0,13.3,1505.2,327.6,-0.7,1.8,2470.371,13.28,0.062,288.7
2021-04-18T06:43:03,42.805,6.029,-0.038,0.016,0.026,103.0,103.0,101.0,13.4,1505.2,324.9,-0.7,1.8,2470.351,13.28,0.041,292.8
2021-04-18T06:46:03,42.805,6.029,-0.034,0.031,0.015,105.0,102.0,101.0,13.4,1505.2,324.0,-0.8,1.8,2470.364,13.28,0.046,312.4
2021-04-18T06:49:03,42.805,6.029,-0.047,0.0,-0.005,102.0,105.0,101.0,13.3,1505.2,326.4,-0.7,1.8,2470.379,13.28,0.047,270.0
2021-04-18T06:52:03,42.805,6.029,-0.05,0.013,-0.007,104.0,102.0,103.0,13.3,1505.2,327.1,-0.8,1.8,2470.342,13.28,0.051,284.6
2021-04-18T06:55:03,42.805,6.029,-0.052,0.0,0.008,104.0,103.0,102.0,13.4,1505.2,325.3,-0.8,1.9,2470.321,13.28,0.052,270.0
2021-04-18T06:58:03,42.805,6.029,-0.064,0.03,0.021,102.0,105.0,101.0,13.3,1505.2,327.5,-0.7,1.8,2470.368,13.28,0.07,295.1
2021-04-18T07:04:03,42.805,6.029,-0.054,0.023,0.008,102.0,103.0,102.0,13.3,1505.2,325.4,-0.8,1.8,2470.425,13.28,0.058,293.1
2021-04-18T07:07:03,42.805,6.029,-0.035,0.037,0.03,104.0,104.0,102.0,13.4,1505.2,329.3,-0.8,1.9,2470.396,13.28,0.05,316.6
2021-04-18T07:10:03,42.805,6.029,-0.05,0.007,-0.001,105.0,105.0,101.0,13.3,1505.2,325.2,-0.8,1.8,2470.389,13.28,0.05,278.0
2021-04-18T07:13:03,42.805,6.029,-0.041,0.018,0.021,103.0,105.0,102.0,13.4,1505.2,325.0,-0.8,1.8,2470.353,13.28,0.044,293.7
2021-04-18T07:16:03,42.805,6.029,-0.059,0.021,-0.001,104.0,102.0,102.0,13.4,1505.2,327.3,-0.7,1.8,2470.359,13.28,0.062,289.6
2021-04-18T07:19:03,42.805,6.029,-0.043,0.015,0.01,103.0,103.0,103.0,13.4,1505.2,327.0,-0.8,1.9,2470.329,13.28,0.045,289.2
2021-04-18T07:22:03,42.805,6.029,-0.052,0.015,0.011,104.0,103.0,101.0,13.3,1505.2,328.2,-0.7,1.8,2470.378,13.28,0.054,286.1
2021-04-18T07:25:03,42.805,6.029,-0.053,-0.001,-0.004,103.0,103.0,101.0,13.3,1505.2,325.9,-0.7,1.8,2470.351,13.28,0.053,268.9
2021-04-18T07:28:03,42.805,6.029,-0.054,0.006,-0.015,104.0,102.0,101.0,13.4,1505.2,324.1,-0.7,1.9,2470.351,13.28,0.054,276.3
2021-04-18T07:31:03,42.805,6.029,-0.056,0.037,0.005,104.0,103.0,101.0,13.4,1505.2,327.7,-0.8,1.8,2470.334,13.28,0.067,303.5
2021-04-18T07:34:03,42.805,6.029,-0.056,0.018,0.005,103.0,102.0,102.0,13.4,1505.2,324.6,-0.8,1.8,2470.343,13.28,0.058,287.8
2021-04-18T07:37:03,42.805,6.029,-0.056,0.021,-0.009,104.0,105.0,100.0,13.4,1505.2,323.4,-0.7,1.8,2470.368,13.28,0.059,290.6
2021-04-18T07:40:03,42.805,6.029,-0.039,0.03,0.028,104.0,102.0,101.0,13.3,1505.2,327.4,-0.8,1.8,2470.395,13.28,0.049,307.6
2021-04-18T07:43:03,42.805,6.029,-0.036,0.033,0.013,103.0,105.0,102.0,13.3,1505.2,326.6,-0.8,1.8,2470.367,13.28,0.048,312.5
2021-04-18T07:46:03,42.805,6.029,-0.042,0.021,0.022,104.0,103.0,103.0,13.3,1505.2,326.1,-0.7,1.8,2470.357,13.28,0.046,296.6
2021-04-18T07:49:03,42.805,6.029,-0.048,0.008,0.0,103.0,104.0,101.0,13.4,1505.2,325.2,-0.7,1.8,2470.358,13.28,0.048,279.5
2021-04-18T07:52:03,42.805,6.029,-0.048,0.003,-0.002,103.0,105.0,101.0,13.4,1505.2,326.4,-0.7,1.8,2470.36,13.28,0.048,273.6
2021-04-18T07:55:03,42.805,6.029,-0.067,0.016,-0.005,104.0,102.0,102.0,13.4,1505.2,327.2,-0.8,1.8,2470.34,13.28,0.068,283.4
2021-04-18T07:58:03,42.805,6.029,-0.057,0.013,-0.001,104.0,104.0,102.0,13.4,1505.2,325.2,-0.7,1.8,2470.361,13.28,0.058,282.8
2021-04-18T08:04:03,42.805,6.029,-0.051,0.005,0.012,103.0,103.0,102.0,13.4,1505.2,327.1,-0.8,1.8,2470.371,13.28,0.051,275.6
2021-04-18T08:07:03,42.805,6.029,-0.063,0.015,0.008,104.0,104.0,102.0,13.4,1505.2,327.6,-0.8,1.8,2470.353,13.28,0.064,283.4
2021-04-18T08:10:03,42.805,6.029,-0.068,0.019,0.018,102.0,103.0,101.0,13.4,1505.2,325.0,-0.7,1.8,2470.363,13.28,0.07,285.6
2021-04-18T08:13:03,42.805,6.029,-0.039,0.011,0.021,105.0,103.0,101.0,13.3,1505.2,326.8,-0.7,1.8,2470.389,13.28,0.04,285.7
2021-04-18T08:16:03,42.805,6.029,-0.043,0.021,0.007,103.0,104.0,102.0,13.3,1505.2,326.8,-0.8,1.8,2470.401,13.28,0.047,296.0
2021-04-18T08:19:03,42.805,6.029,-0.052,0.004,-0.009,107.0,104.0,101.0,13.4,1505.2,324.7,-0.8,1.8,2470.322,13.28,0.052,274.4
2021-04-18T08:22:03,42.805,6.029,-0.046,0.038,-0.008,103.0,102.0,102.0,13.4,1505.2,326.3,-0.7,1.8,2470.345,13.28,0.059,309.6
2021-04-18T08:25:03,42.805,6.029,-0.042,0.003,0.017,103.0,104.0,101.0,13.4,1505.2,328.0,-0.7,1.8,2470.366,13.28,0.042,274.1
2021-04-18T08:28:03,42.805,6.029,-0.042,0.037,0.032,105.0,103.0,102.0,13.3,1505.2,324.1,-0.7,1.8,2470.357,13.28,0.055,311.4
2021-04-18T08:31:03,42.805,6.029,-0.055,0.002,-0.034,104.0,104.0,102.0,13.4,1505.2,325.5,-0.7,1.8,2470.307,13.28,0.055,272.1
2021-04-18T08:34:03,42.805,6.029,-0.05,0.002,-0.014,102.0,103.0,103.0,13.3,1505.2,325.4,-0.8,1.8,2470.361,13.28,0.05,272.3
2021-04-18T08:37:03,42.805,6.029,-0.031,0.012,0.0,104.0,103.0,103.0,13.3,1505.2,328.5,-0.7,1.8,2470.354,13.28,0.033,291.2
2021-04-18T08:40:03,42.805,6.029,-0.036,0.022,0.03,104.0,103.0,103.0,13.4,1505.2,325.7,-0.7,1.8,2470.349,13.28,0.042,301.4
2021-04-18T08:43:03,42.805,6.029,-0.039,0.03,-0.002,105.0,102.0,101.0,13.4,1505.2,326.8,-0.8,1.8,2470.389,13.28,0.049,307.6
2021-04-18T08:46:03,42.805,6.029,-0.044,0.02,0.03,104.0,104.0,101.0,13.4,1505.2,326.6,-0.7,1.8,2470.356,13.28,0.048,294.4
2021-04-18T08:49:03,42.805,6.029,-0.058,0.008,0.011,104.0,104.0,102.0,13.4,1505.2,324.9,-0.8,1.8,2470.386,13.28,0.058,277.8
2021-04-18T08:52:03,42.805,6.029,-0.048,0.023,-0.001,103.0,104.0,102.0,13.3,1505.2,328.5,-0.7,1.8,2470.349,13.28,0.053,295.6
2021-04-18T08:55:03,42.805,6.029,-0.012,0.008,0.007,104.0,106.0,103.0,13.4,1505.2,326.4,-0.8,1.9,2470.39,13.28,0.014,303.7
2021-04-18T08:58:03,42.805,6.029,-0.039,0.006,0.022,104.0,104.0,102.0,13.3,1505.2,325.9,-0.7,1.8,2470.371,13.28,0.039,278.7
2021-04-18T09:04:03,42.805,6.029,-0.038,0.022,0.025,102.0,103.0,102.0,13.4,1505.2,325.6,-0.7,1.8,2470.398,13.28,0.043,300.1
2021-04-18T09:07:03,42.805,6.029,-0.042,0.022,0.055,104.0,102.0,103.0,13.4,1505.2,327.9,-0.8,1.8,2470.363,13.28,0.047,297.6
2021-04-18T09:10:03,42.805,6.029,-0.072,0.013,-0.007,106.0,103.0,100.0,13.4,1505.2,328.1,-0.8,1.8,2470.348,13.28,0.073,280.2
2021-04-18T09:13:03,42.805,6.029,-0.044,0.012,-0.007,103.0,103.0,101.0,13.3,1505.2,325.7,-0.7,1.8,2470.347,13.28,0.045,285.3
2021-04-18T09:16:03,42.805,6.029,-0.045,0.014,0.002,104.0,102.0,102.0,13.4,1505.2,327.8,-0.8,1.8,2470.365,13.28,0.047,287.3
2021-04-18T09:19:03,42.805,6.029,-0.049,0.016,0.011,105.0,104.0,101.0,13.4,1505.2,328.5,-0.8,1.8,2470.383,13.28,0.051,288.1
2021-04-18T09:22:03,42.805,6.029,-0.072,0.016,-0.003,105.0,105.0,101.0,13.4,1505.2,325.8,-0.7,1.8,2470.372,13.28,0.073,282.5
2021-04-18T09:25:03,42.805,6.029,-0.053,0.026,0.027,104.0,103.0,103.0,13.4,1505.2,328.2,-0.7,1.8,2470.396,13.28,0.059,296.1
2021-04-18T09:28:03,42.805,6.029,-0.047,0.036,0.042,103.0,102.0,101.0,13.4,1505.2,325.9,-0.8,1.8,2470.358,13.28,0.059,307.5
2021-04-18T09:31:03,42.805,6.029,-0.044,0.033,-0.006,102.0,106.0,101.0,13.4,1505.2,323.5,-0.7,1.8,2470.396,13.28,0.055,306.9
2021-04-18T09:34:03,42.805,6.029,-0.053,0.022,0.009,102.0,104.0,102.0,13.4,1505.2,326.0,-0.7,1.8,2470.394,13.28,0.057,292.5
2021-04-18T09:37:03,42.805,6.029,-0.055,-0.009,0.016,104.0,104.0,101.0,13.4,1505.2,327.1,-0.8,1.8,2470.388,13.28,0.055,260.7
2021-04-18T09:40:03,42.805,6.029,-0.035,0.034,0.021,102.0,104.0,102.0,13.4,1505.2,327.6,-0.7,1.8,2470.386,13.28,0.048,314.2
2021-04-18T09:43:03,42.805,6.029,-0.046,0.048,0.034,105.0,103.0,102.0,13.4,1505.2,327.8,-0.8,1.8,2470.334,13.28,0.066,316.2
2021-04-18T09:46:03,42.805,6.029,-0.049,0.033,0.005,105.0,103.0,101.0,13.4,1505.2,327.2,-0.8,1.8,2470.392,13.28,0.059,304.0
2021-04-18T09:49:03,42.805,6.029,-0.051,0.029,0.024,105.0,103.0,101.0,13.4,1505.2,328.7,-0.7,1.8,2470.366,13.28,0.058,299.6
2021-04-18T09:52:03,42.805,6.029,-0.068,0.025,0.042,103.0,103.0,102.0,13.4,1505.2,327.2,-0.8,1.8,2470.352,13.28,0.072,290.2
2021-04-18T09:55:03,42.805,6.029,-0.06,0.036,0.021,103.0,105.0,100.0,13.4,1505.2,329.0,-0.7,1.8,2470.411,13.28,0.069,301.0